User: anonymous   Login
Location: Unspecified
(0.0000°N, 0.0000°E)
Time: 21:47:07
(UTC+00:00)
Language:

COSMOS 2489 - Orbit

View from above orbital plane
View from above orbital plane
View from above satellite
View from above satellite

Ground track
Ground track

The orbit data is extracted from the following two-line orbital elements,

1 39484U 13076B   17117.75381699 +.00000010 +00000-0 +00000-0 0  9991
2 39484 082.4856 088.9495 0021815 167.1791 192.9850 12.42876280151556
Epoch (UTC): 27 April 2017 18:05:29
Eccentricity: 0.0021815
inclination: 82.4856°
perigee height: 1477 km
apogee height: 1511 km
right ascension of ascending node: 88.9495°
argument of perigee: 167.1791°
revolutions per day: 12.42876280
mean anomaly at epoch: 192.9850°
orbit number at epoch: 15155

The dashed part of the orbit path shows where the satellite is in the earth's shadow,  

DLR